| time (UTC) | temp F | wind direction | speed MPH | gust MPH | rain 1hr in | rain 24hr in | rain mn in | humidity % | barometer mb |
| 20260510185702 | 69 | 93 | 6.0 | 13.0 | 0.00 | 0.00 | 0.00 | 85 | 950.1 |
| 20260510185201 | 69 | 65 | 6.0 | 18.0 | 0.00 | 0.00 | 0.00 | 84 | 950.1 |
| 20260510184701 | 68 | 64 | 6.0 | 18.0 | 0.00 | 0.00 | 0.00 | 84 | 949.7 |
| 20260510184159 | 68 | 73 | 7.0 | 14.0 | 0.00 | 0.00 | 0.00 | 85 | 949.6 |
| 20260510183659 | 68 | 81 | 8.0 | 15.0 | 0.00 | 0.00 | 0.00 | 85 | 949.9 |
| 20260510182641 | 68 | 71 | 6.0 | 15.0 | 0.00 | 0.00 | 0.00 | 85 | 949.8 |
| 20260510182141 | 68 | 78 | 6.0 | 16.0 | 0.00 | 0.00 | 0.00 | 84 | 950.1 |
| 20260510181640 | 68 | 96 | 6.0 | 16.0 | 0.00 | 0.00 | 0.00 | 85 | 949.9 |
| 20260510181139 | 67 | 81 | 7.0 | 20.0 | 0.00 | 0.00 | 0.00 | 85 | 949.6 |
| 20260510180637 | 67 | 91 | 7.0 | 20.0 | 0.00 | 0.00 | 0.00 | 85 | 950.1 |
| 20260510180136 | 67 | 94 | 8.0 | 15.0 | 0.00 | 0.00 | 0.00 | 85 | 949.6 |
| 20260510175119 | 66 | 65 | 7.0 | 16.0 | 0.00 | 0.00 | 0.00 | 86 | 949.4 |
| 20260510174618 | 66 | 66 | 8.0 | 18.0 | 0.00 | 0.00 | 0.00 | 86 | 949.0 |
| 20260510174116 | 66 | 75 | 8.0 | 18.0 | 0.00 | 0.00 | 0.00 | 87 | 949.3 |
| 20260510173615 | 66 | 65 | 7.0 | 15.0 | 0.00 | 0.00 | 0.00 | 87 | 949.5 |
| 20260510173114 | 65 | 79 | 5.0 | 13.0 | 0.00 | 0.00 | 0.00 | 89 | 949.4 |
| 20260510172613 | 65 | 78 | 7.0 | 14.0 | 0.00 | 0.00 | 0.00 | 88 | 949.1 |
| 20260510171556 | 65 | 87 | 6.0 | 19.0 | 0.00 | 0.00 | 0.00 | 89 | 949.5 |
| 20260510171055 | 64 | 67 | 6.0 | 19.0 | 0.00 | 0.00 | 0.00 | 89 | 949.6 |
| 20260510170554 | 64 | 89 | 9.0 | 16.0 | 0.00 | 0.00 | 0.00 | 90 | 949.3 |
| 20260510170053 | 64 | 72 | 5.0 | 18.0 | 0.00 | 0.00 | 0.00 | 89 | 949.5 |
| 20260510165552 | 64 | 89 | 8.0 | 22.0 | 0.00 | 0.00 | 0.00 | 90 | 949.3 |
| 20260510165051 | 63 | 85 | 7.0 | 22.0 | 0.00 | 0.00 | 0.00 | 91 | 949.5 |
| 20260510164550 | 64 | 74 | 7.0 | 16.0 | 0.00 | 0.00 | 0.00 | 91 | 949.3 |
| 20260510163532 | 64 | 71 | 5.0 | 13.0 | 0.00 | 0.00 | 0.00 | 91 | 949.1 |
| 20260510163031 | 64 | 87 | 7.0 | 13.0 | 0.00 | 0.00 | 0.00 | 92 | 949.0 |
| 20260510162530 | 64 | 83 | 5.0 | 15.0 | 0.00 | 0.00 | 0.00 | 92 | 949.2 |
| 20260510162029 | 63 | 87 | 7.0 | 19.0 | 0.00 | 0.00 | 0.00 | 91 | 949.0 |
| 20260510161528 | 63 | 78 | 6.0 | 19.0 | 0.00 | 0.00 | 0.00 | 90 | 949.1 |
| 20260510161026 | 64 | 77 | 7.0 | 18.0 | 0.00 | 0.00 | 0.00 | 90 | 948.8 |
| 20260510160525 | 64 | 66 | 8.0 | 15.0 | 0.00 | 0.00 | 0.00 | 91 | 948.9 |
| 20260510155508 | 64 | 76 | 7.0 | 19.0 | 0.00 | 0.00 | 0.00 | 91 | 948.9 |
| 20260510155007 | 64 | 67 | 6.0 | 19.0 | 0.00 | 0.00 | 0.00 | 92 | 948.8 |
| 20260510154506 | 63 | 70 | 8.0 | 19.0 | 0.00 | 0.00 | 0.00 | 91 | 948.7 |
| 20260510154004 | 63 | 74 | 6.0 | 15.0 | 0.00 | 0.00 | 0.00 | 92 | 948.8 |
| 20260510153503 | 63 | 80 | 7.0 | 15.0 | 0.00 | 0.00 | 0.00 | 91 | 948.9 |
| 20260510153002 | 63 | 78 | 7.0 | 14.0 | 0.00 | 0.00 | 0.00 | 91 | 948.7 |
| 20260510152501 | 63 | 78 | 7.0 | 13.0 | 0.00 | 0.00 | 0.00 | 91 | 949.2 |
| 20260510151959 | 64 | 76 | 4.0 | 14.0 | 0.00 | 0.00 | 0.00 | 91 | 949.0 |
| 20260510151458 | 64 | 78 | 7.0 | 14.0 | 0.00 | 0.00 | 0.00 | 91 | 949.0 |
| 20260510145925 | 64 | 79 | 6.0 | 18.0 | 0.00 | 0.00 | 0.00 | 91 | 948.9 |
| 20260510145424 | 64 | 84 | 6.0 | 18.0 | 0.00 | 0.00 | 0.00 | 91 | 948.9 |
| 20260510144923 | 64 | 66 | 6.0 | 15.0 | 0.00 | 0.00 | 0.00 | 90 | 948.6 |
| 20260510144422 | 64 | 74 | 6.0 | 14.0 | 0.00 | 0.00 | 0.00 | 91 | 948.9 |
| 20260510143921 | 64 | 66 | 7.0 | 15.0 | 0.00 | 0.00 | 0.00 | 91 | 948.8 |
| 20260510143420 | 64 | 77 | 6.0 | 15.0 | 0.00 | 0.00 | 0.00 | 91 | 948.8 |
| 20260510142919 | 63 | 70 | 6.0 | 13.0 | 0.00 | 0.00 | 0.00 | 92 | 948.5 |
| 20260510142418 | 64 | 88 | 7.0 | 14.0 | 0.00 | 0.00 | 0.00 | 91 | 948.6 |
| 20260510141917 | 64 | 82 | 8.0 | 15.0 | 0.00 | 0.00 | 0.00 | 91 | 948.4 |
| 20260510141416 | 64 | 81 | 5.0 | 16.0 | 0.00 | 0.00 | 0.00 | 91 | 948.3 |
| 20260510140358 | 64 | 59 | 6.0 | 24.0 | 0.00 | 0.00 | 0.00 | 90 | 948.3 |
| 20260510135857 | 64 | 77 | 8.0 | 24.0 | 0.00 | 0.00 | 0.00 | 91 | 948.4 |
| 20260510135356 | 64 | 76 | 7.0 | 18.0 | 0.00 | 0.00 | 0.00 | 91 | 948.0 |
| 20260510134855 | 64 | 74 | 7.0 | 18.0 | 0.00 | 0.00 | 0.00 | 92 | 948.2 |
| 20260510134354 | 64 | 81 | 6.0 | 22.0 | 0.00 | 0.00 | 0.00 | 92 | 948.2 |
| 20260510133853 | 64 | 69 | 6.0 | 22.0 | 0.00 | 0.00 | 0.00 | 92 | 948.6 |
| 20260510133352 | 64 | 68 | 6.0 | 15.0 | 0.00 | 0.00 | 0.00 | 92 | 948.0 |
| 20260510132851 | 64 | 79 | 7.0 | 15.0 | 0.00 | 0.00 | 0.00 | 92 | 948.1 |
| 20260510132350 | 64 | 67 | 4.0 | 14.0 | 0.00 | 0.00 | 0.00 | 92 | 948.6 |
| 20260510131849 | 64 | 81 | 7.0 | 16.0 | 0.00 | 0.00 | 0.00 | 91 | 948.4 |
| 20260510131348 | 64 | 80 | 5.0 | 16.0 | 0.00 | 0.00 | 0.00 | 91 | 948.7 |
| 20260510130847 | 64 | 75 | 8.0 | 20.0 | 0.00 | 0.00 | 0.00 | 90 | 948.5 |
| 20260510130346 | 64 | 83 | 5.0 | 20.0 | 0.00 | 0.00 | 0.00 | 90 | 948.5 |
| 20260510125844 | 64 | 85 | 7.0 | 20.0 | 0.00 | 0.00 | 0.00 | 91 | 948.9 |
| 20260510125343 | 64 | 87 | 8.0 | 15.0 | 0.00 | 0.00 | 0.00 | 92 | 948.7 |
| 20260510124842 | 64 | 84 | 8.0 | 15.0 | 0.00 | 0.00 | 0.00 | 92 | 948.6 |
| 20260510124341 | 64 | 68 | 4.0 | 15.0 | 0.00 | 0.00 | 0.00 | 91 | 948.9 |
| 20260510123840 | 64 | 75 | 7.0 | 15.0 | 0.00 | 0.00 | 0.00 | 91 | 948.6 |
| 20260510123339 | 64 | 67 | 7.0 | 15.0 | 0.00 | 0.00 | 0.00 | 91 | 948.8 |
| 20260510122838 | 64 | 66 | 6.0 | 16.0 | 0.00 | 0.00 | 0.00 | 91 | 948.5 |
| 20260510121821 | 64 | 72 | 8.0 | 18.0 | 0.00 | 0.00 | 0.00 | 91 | 948.5 |
| 20260510121320 | 64 | 60 | 6.0 | 18.0 | 0.00 | 0.00 | 0.00 | 90 | 948.4 |
| 20260510120819 | 64 | 52 | 7.0 | 18.0 | 0.00 | 0.00 | 0.00 | 90 | 948.6 |
| 20260510120317 | 64 | 65 | 8.0 | 16.0 | 0.00 | 0.00 | 0.00 | 90 | 948.5 |
| 20260510115816 | 64 | 72 | 7.0 | 20.0 | 0.00 | 0.00 | 0.00 | 91 | 948.7 |
| 20260510115315 | 64 | 70 | 9.0 | 20.0 | 0.00 | 0.00 | 0.00 | 90 | 948.7 |
| 20260510114814 | 64 | 64 | 8.0 | 19.0 | 0.00 | 0.00 | 0.00 | 89 | 948.6 |
| 20260510114313 | 64 | 60 | 10.0 | 19.0 | 0.00 | 0.00 | 0.00 | 90 | 948.7 |
| 20260510113812 | 64 | 57 | 7.0 | 19.0 | 0.00 | 0.00 | 0.00 | 90 | 948.6 |
| 20260510113311 | 64 | 64 | 8.0 | 18.0 | 0.00 | 0.00 | 0.00 | 90 | 948.9 |
| 20260510112809 | 64 | 59 | 9.0 | 18.0 | 0.00 | 0.00 | 0.00 | 90 | 948.9 |
| 20260510112308 | 64 | 60 | 9.0 | 16.0 | 0.00 | 0.00 | 0.00 | 91 | 948.8 |
| 20260510111807 | 64 | 64 | 8.0 | 20.0 | 0.00 | 0.00 | 0.00 | 90 | 948.8 |
| 20260510110750 | 64 | 68 | 9.0 | 21.0 | 0.00 | 0.00 | 0.00 | 89 | 949.0 |
| 20260510110249 | 64 | 69 | 9.0 | 21.0 | 0.00 | 0.00 | 0.00 | 89 | 948.9 |
| 20260510105748 | 64 | 66 | 10.0 | 18.0 | 0.00 | 0.00 | 0.00 | 90 | 949.1 |
| 20260510104731 | 64 | 68 | 8.0 | 15.0 | 0.00 | 0.00 | 0.00 | 90 | 948.9 |
| 20260510104230 | 64 | 65 | 7.0 | 15.0 | 0.00 | 0.00 | 0.00 | 89 | 949.3 |
| 20260510103729 | 64 | 57 | 7.0 | 15.0 | 0.00 | 0.00 | 0.00 | 91 | 949.3 |
| 20260510103228 | 64 | 52 | 7.0 | 15.0 | 0.00 | 0.00 | 0.00 | 91 | 949.6 |
| 20260510102727 | 64 | 64 | 7.0 | 20.0 | 0.00 | 0.00 | 0.00 | 90 | 949.4 |
| 20260510102225 | 65 | 58 | 7.0 | 20.0 | 0.00 | 0.00 | 0.00 | 90 | 949.2 |
| 20260510101724 | 65 | 60 | 7.0 | 18.0 | 0.00 | 0.00 | 0.00 | 90 | 949.3 |
| 20260510101223 | 65 | 51 | 7.0 | 18.0 | 0.00 | 0.00 | 0.00 | 90 | 949.3 |
| 20260510100206 | 65 | 56 | 8.0 | 16.0 | 0.00 | 0.00 | 0.00 | 90 | 949.2 |
| 20260510095705 | 65 | 60 | 6.0 | 19.0 | 0.00 | 0.00 | 0.00 | 90 | 949.3 |
| 20260510094131 | 65 | 53 | 8.0 | 16.0 | 0.00 | 0.00 | 0.00 | 89 | 949.8 |
| 20260510093630 | 65 | 58 | 8.0 | 16.0 | 0.00 | 0.00 | 0.00 | 89 | 949.5 |
| 20260510092613 | 65 | 63 | 7.0 | 16.0 | 0.00 | 0.00 | 0.00 | 89 | 950.0 |
| 20260510092112 | 65 | 64 | 9.0 | 18.0 | 0.00 | 0.00 | 0.00 | 88 | 949.7 |
| 20260510091611 | 65 | 58 | 8.0 | 20.0 | 0.00 | 0.00 | 0.00 | 88 | 949.8 |
| 20260510091110 | 65 | 53 | 9.0 | 20.0 | 0.00 | 0.00 | 0.00 | 88 | 949.8 |
| 20260510090609 | 65 | 53 | 8.0 | 21.0 | 0.00 | 0.00 | 0.00 | 89 | 950.2 |
| 20260510090108 | 65 | 63 | 6.0 | 21.0 | 0.00 | 0.00 | 0.00 | 88 | 950.1 |
| 20260510085607 | 65 | 59 | 10.0 | 18.0 | 0.00 | 0.00 | 0.00 | 88 | 949.9 |
| 20260510085106 | 65 | 57 | 7.0 | 16.0 | 0.00 | 0.00 | 0.00 | 89 | 950.2 |
| 20260510084605 | 64 | 51 | 7.0 | 16.0 | 0.00 | 0.00 | 0.00 | 90 | 950.0 |
| 20260510084104 | 65 | 49 | 6.0 | 14.0 | 0.00 | 0.00 | 0.00 | 90 | 949.8 |
| 20260510083603 | 65 | 55 | 8.0 | 14.0 | 0.00 | 0.00 | 0.00 | 90 | 949.6 |
| 20260510082546 | 65 | 46 | 10.0 | 19.0 | 0.00 | 0.00 | 0.00 | 90 | 949.8 |
| 20260510082044 | 65 | 53 | 8.0 | 16.0 | 0.00 | 0.00 | 0.00 | 90 | 949.8 |
| 20260510081027 | 65 | 57 | 8.0 | 15.0 | 0.00 | 0.00 | 0.00 | 89 | 949.9 |
| 20260510080009 | 65 | 56 | 6.0 | 13.0 | 0.00 | 0.00 | 0.00 | 90 | 950.2 |
| 20260510075508 | 65 | 50 | 6.0 | 13.0 | 0.00 | 0.00 | 0.00 | 90 | 950.1 |
| 20260510075007 | 65 | 45 | 7.0 | 15.0 | 0.00 | 0.00 | 0.00 | 90 | 950.0 |
| 20260510074506 | 65 | 42 | 7.0 | 18.0 | 0.00 | 0.00 | 0.00 | 89 | 950.1 |
| 20260510073449 | 65 | 49 | 8.0 | 19.0 | 0.00 | 0.00 | 0.00 | 89 | 949.8 |
| 20260510072948 | 65 | 49 | 7.0 | 19.0 | 0.00 | 0.00 | 0.00 | 90 | 949.6 |
| 20260510071932 | 65 | 46 | 6.0 | 19.0 | 0.00 | 0.00 | 0.00 | 88 | 949.5 |
| 20260510071430 | 65 | 50 | 8.0 | 20.0 | 0.00 | 0.00 | 0.00 | 88 | 949.1 |
| 20260510070929 | 65 | 56 | 9.0 | 20.0 | 0.00 | 0.00 | 0.00 | 89 | 949.6 |
| 20260510070428 | 65 | 40 | 9.0 | 24.0 | 0.00 | 0.00 | 0.00 | 89 | 949.3 |
| 20260510065927 | 65 | 53 | 8.0 | 24.0 | 0.00 | 0.00 | 0.00 | 88 | 949.5 |
| 20260510065427 | 65 | 57 | 8.0 | 16.0 | 0.00 | 0.00 | 0.00 | 88 | 949.3 |
| 20260510064925 | 65 | 50 | 7.0 | 16.0 | 0.00 | 0.00 | 0.00 | 88 | 949.3 |
| 20260510064424 | 65 | 39 | 8.0 | 14.0 | 0.00 | 0.00 | 0.00 | 86 | 949.5 |
| 20260510062851 | 65 | 54 | 7.0 | 14.0 | 0.00 | 0.00 | 0.00 | 87 | 949.2 |
| 20260510061835 | 65 | 53 | 7.0 | 18.0 | 0.00 | 0.00 | 0.00 | 87 | 949.1 |
| 20260510061333 | 65 | 53 | 10.0 | 18.0 | 0.00 | 0.00 | 0.00 | 87 | 949.5 |
| 20260510060832 | 65 | 59 | 9.0 | 18.0 | 0.00 | 0.00 | 0.00 | 88 | 949.0 |
| 20260510060332 | 65 | 67 | 7.0 | 15.0 | 0.00 | 0.00 | 0.00 | 88 | 948.7 |
| 20260510055830 | 65 | 64 | 7.0 | 18.0 | 0.00 | 0.00 | 0.00 | 88 | 949.1 |
| 20260510055330 | 65 | 55 | 8.0 | 18.0 | 0.00 | 0.00 | 0.00 | 88 | 948.8 |
| 20260510053756 | 65 | 50 | 8.0 | 16.0 | 0.00 | 0.00 | 0.00 | 88 | 948.7 |
| 20260510053256 | 65 | 63 | 7.0 | 16.0 | 0.00 | 0.00 | 0.00 | 88 | 948.6 |
| 20260510052754 | 65 | 58 | 8.0 | 21.0 | 0.00 | 0.00 | 0.00 | 88 | 948.5 |
| 20260510052254 | 65 | 58 | 8.0 | 21.0 | 0.00 | 0.00 | 0.00 | 88 | 948.8 |
| 20260510051753 | 65 | 60 | 7.0 | 20.0 | 0.00 | 0.00 | 0.00 | 88 | 948.5 |
| 20260510051250 | 65 | 55 | 7.0 | 16.0 | 0.00 | 0.00 | 0.00 | 89 | 948.3 |
| 20260510050750 | 65 | 44 | 6.0 | 16.0 | 0.00 | 0.00 | 0.00 | 87 | 948.5 |
| 20260510050248 | 65 | 66 | 7.0 | 14.0 | 0.00 | 0.00 | 0.00 | 87 | 948.5 |
| 20260510045747 | 66 | 57 | 6.0 | 15.0 | 0.00 | 0.00 | 0.00 | 87 | 948.7 |
| 20260510045247 | 66 | 56 | 6.0 | 19.0 | 0.00 | 0.00 | 0.00 | 87 | 948.6 |
| 20260510044229 | 66 | 59 | 5.0 | 14.0 | 0.00 | 0.00 | 0.00 | 87 | 948.7 |
| 20260510043728 | 66 | 49 | 7.0 | 14.0 | 0.00 | 0.00 | 0.00 | 86 | 948.9 |
| 20260510043227 | 66 | 48 | 6.0 | 14.0 | 0.00 | 0.00 | 0.00 | 87 | 948.6 |
| 20260510042727 | 66 | 55 | 5.0 | 14.0 | 0.00 | 0.00 | 0.00 | 87 | 948.3 |
| 20260510042225 | 66 | 51 | 6.0 | 18.0 | 0.00 | 0.00 | 0.00 | 85 | 948.0 |
| 20260510041724 | 67 | 53 | 7.0 | 18.0 | 0.00 | 0.00 | 0.00 | 85 | 948.2 |
| 20260510041223 | 67 | 49 | 7.0 | 14.0 | 0.00 | 0.00 | 0.00 | 84 | 947.9 |
| 20260510040722 | 67 | 44 | 6.0 | 18.0 | 0.00 | 0.00 | 0.00 | 84 | 948.2 |
| 20260510040222 | 67 | 51 | 6.0 | 18.0 | 0.00 | 0.00 | 0.00 | 85 | 947.9 |
| 20260510035721 | 67 | 45 | 8.0 | 19.0 | 0.00 | 0.00 | 0.00 | 85 | 947.6 |
| 20260510034704 | 67 | 50 | 7.0 | 14.0 | 0.00 | 0.00 | 0.00 | 85 | 947.5 |
| 20260510033647 | 67 | 39 | 6.0 | 15.0 | 0.00 | 0.00 | 0.00 | 84 | 947.5 |
| 20260510032629 | 68 | 55 | 6.0 | 16.0 | 0.00 | 0.00 | 0.00 | 84 | 947.8 |
| 20260510031612 | 68 | 40 | 7.0 | 14.0 | 0.00 | 0.00 | 0.00 | 82 | 947.4 |
| 20260510031111 | 69 | 54 | 6.0 | 14.0 | 0.00 | 0.00 | 0.00 | 83 | 948.0 |
| 20260510030053 | 69 | 46 | 6.0 | 13.0 | 0.00 | 0.00 | 0.00 | 83 | 947.4 |
| 20260510025552 | 69 | 49 | 6.0 | 13.0 | 0.00 | 0.00 | 0.00 | 83 | 947.6 |
| 20260510025051 | 69 | 54 | 7.0 | 13.0 | 0.00 | 0.00 | 0.00 | 83 | 947.6 |
| 20260510024034 | 69 | 48 | 5.0 | 14.0 | 0.00 | 0.00 | 0.00 | 83 | 947.7 |
| 20260510023533 | 69 | 48 | 4.0 | 14.0 | 0.00 | 0.00 | 0.00 | 83 | 947.4 |
| 20260510023032 | 70 | 44 | 5.0 | 14.0 | 0.00 | 0.00 | 0.00 | 83 | 947.6 |
| 20260510022531 | 70 | 47 | 4.0 | 12.0 | 0.00 | 0.00 | 0.00 | 83 | 948.0 |
| 20260510021514 | 70 | 77 | 4.0 | 12.0 | 0.00 | 0.00 | 0.00 | 83 | 948.0 |
| 20260510021013 | 70 | 75 | 4.0 | 12.0 | 0.00 | 0.00 | 0.00 | 84 | 948.1 |
| 20260510020512 | 70 | 46 | 4.0 | 12.0 | 0.00 | 0.00 | 0.00 | 84 | 948.0 |
| 20260510020011 | 70 | 53 | 3.0 | 12.0 | 0.00 | 0.00 | 0.00 | 84 | 948.4 |
| 20260510015510 | 70 | 69 | 3.0 | 12.0 | 0.00 | 0.00 | 0.00 | 83 | 948.7 |
| 20260510015009 | 70 | 46 | 3.0 | 12.0 | 0.00 | 0.00 | 0.00 | 82 | 948.3 |
| 20260510013952 | 72 | 43 | 3.0 | 12.0 | 0.00 | 0.00 | 0.00 | 80 | 948.8 |
| 20260510013451 | 72 | 59 | 6.0 | 14.0 | 0.00 | 0.00 | 0.00 | 79 | 948.6 |
| 20260510012950 | 72 | 54 | 6.0 | 14.0 | 0.00 | 0.00 | 0.00 | 80 | 948.4 |
| 20260510012449 | 72 | 44 | 7.0 | 14.0 | 0.00 | 0.00 | 0.00 | 78 | 948.3 |
| 20260510011948 | 72 | 45 | 7.0 | 14.0 | 0.00 | 0.00 | 0.00 | 78 | 948.3 |
| 20260510011447 | 73 | 51 | 6.0 | 14.0 | 0.00 | 0.00 | 0.00 | 76 | 948.4 |
| 20260510010946 | 73 | 46 | 6.0 | 14.0 | 0.00 | 0.00 | 0.00 | 76 | 948.2 |
| 20260510010445 | 73 | 41 | 6.0 | 14.0 | 0.00 | 0.00 | 0.00 | 77 | 948.3 |
| 20260510005944 | 73 | 38 | 8.0 | 14.0 | 0.00 | 0.00 | 0.00 | 75 | 948.3 |
| 20260510005443 | 74 | 38 | 8.0 | 15.0 | 0.00 | 0.00 | 0.00 | 74 | 948.3 |
| 20260510004942 | 74 | 54 | 7.0 | 15.0 | 0.00 | 0.00 | 0.00 | 77 | 948.4 |
| 20260510004441 | 73 | 38 | 8.0 | 14.0 | 0.00 | 0.00 | 0.00 | 76 | 948.1 |
| 20260510003940 | 73 | 44 | 6.0 | 13.0 | 0.00 | 0.00 | 0.00 | 78 | 948.4 |
| 20260510003439 | 73 | 60 | 5.0 | 11.0 | 0.00 | 0.00 | 0.00 | 75 | 948.7 |
| 20260510002937 | 74 | 32 | 3.0 | 11.0 | 0.00 | 0.00 | 0.00 | 76 | 948.9 |
| 20260510002436 | 75 | 47 | 5.0 | 11.0 | 0.00 | 0.00 | 0.00 | 75 | 949.0 |
| 20260510001935 | 75 | 62 | 3.0 | 12.0 | 0.00 | 0.00 | 0.00 | 76 | 949.2 |
| 20260510001434 | 74 | 45 | 3.0 | 12.0 | 0.00 | 0.00 | 0.00 | 78 | 949.5 |
| 20260510000933 | 74 | 14 | 2.0 | 12.0 | 0.00 | 0.00 | 0.00 | 75 | 949.2 |
| 20260510000433 | 74 | 40 | 3.0 | 12.0 | 0.00 | 0.00 | 0.00 | 76 | 949.1 |
| 20260509235931 | 74 | 53 | 4.0 | 12.0 | 0.00 | 0.00 | 0.00 | 76 | 949.1 |
| 20260509235430 | 74 | 52 | 4.0 | 12.0 | 0.00 | 0.00 | 0.00 | 72 | 948.9 |
| 20260509234929 | 75 | 66 | 3.0 | 12.0 | 0.00 | 0.00 | 0.00 | 77 | 949.1 |
| 20260509233912 | 75 | 51 | 4.0 | 12.0 | 0.00 | 0.00 | 0.00 | 76 | 949.6 |
| 20260509233411 | 76 | 19 | 2.0 | 12.0 | 0.00 | 0.00 | 0.00 | 75 | 949.0 |
| 20260509232910 | 75 | 47 | 3.0 | 12.0 | 0.00 | 0.00 | 0.00 | 76 | 949.1 |
| 20260509232409 | 75 | 44 | 3.0 | 12.0 | 0.00 | 0.00 | 0.00 | 77 | 949.3 |
| 20260509231908 | 75 | 41 | 3.0 | 12.0 | 0.00 | 0.00 | 0.00 | 76 | 949.6 |
| 20260509231407 | 75 | 53 | 3.0 | 12.0 | 0.00 | 0.00 | 0.00 | 76 | 949.5 |
| 20260509230906 | 75 | 81 | 4.0 | 12.0 | 0.00 | 0.00 | 0.00 | 77 | 949.4 |
| 20260509230405 | 75 | 48 | 3.0 | 12.0 | 0.00 | 0.00 | 0.00 | 73 | 949.6 |
| 20260509225904 | 75 | 50 | 2.0 | 12.0 | 0.00 | 0.00 | 0.00 | 77 | 949.6 |
| 20260509225403 | 75 | 55 | 4.0 | 12.0 | 0.00 | 0.00 | 0.00 | 75 | 949.8 |
| 20260509224902 | 76 | 84 | 4.0 | 12.0 | 0.00 | 0.00 | 0.00 | 74 | 950.0 |
| 20260509224401 | 76 | 89 | 3.0 | 12.0 | 0.00 | 0.00 | 0.00 | 75 | 949.9 |
| 20260509223900 | 76 | 67 | 4.0 | 12.0 | 0.00 | 0.00 | 0.00 | 75 | 950.0 |
| 20260509223359 | 76 | 43 | 3.0 | 12.0 | 0.00 | 0.00 | 0.00 | 75 | 950.2 |
| 20260509222858 | 76 | 53 | 3.0 | 12.0 | 0.00 | 0.00 | 0.00 | 75 | 950.1 |
| 20260509222357 | 76 | 67 | 5.0 | 12.0 | 0.00 | 0.00 | 0.00 | 75 | 950.3 |
| 20260509221855 | 76 | 59 | 3.0 | 13.0 | 0.00 | 0.00 | 0.00 | 77 | 950.1 |
| 20260509221354 | 76 | 63 | 2.0 | 13.0 | 0.00 | 0.00 | 0.00 | 78 | 950.2 |
| 20260509220853 | 75 | 82 | 4.0 | 13.0 | 0.00 | 0.00 | 0.00 | 74 | 950.0 |
| 20260509220352 | 76 | 55 | 2.0 | 13.0 | 0.00 | 0.00 | 0.00 | 76 | 950.2 |
| 20260509215851 | 75 | 74 | 3.0 | 13.0 | 0.00 | 0.00 | 0.00 | 77 | 950.8 |
| 20260509215349 | 75 | 4 | 2.0 | 13.0 | 0.00 | 0.00 | 0.00 | 77 | 950.6 |
| 20260509214332 | 74 | 55 | 2.0 | 13.0 | 0.00 | 0.00 | 0.00 | 76 | 950.0 |
| 20260509213831 | 74 | 114 | 3.0 | 13.0 | 0.00 | 0.00 | 0.00 | 77 | 950.4 |
| 20260509213330 | 75 | 62 | 3.0 | 13.0 | 0.00 | 0.00 | 0.00 | 74 | 950.6 |
| 20260509212829 | 74 | 308 | 1.0 | 13.0 | 0.00 | 0.00 | 0.00 | 76 | 950.6 |
| 20260509212328 | 74 | 124 | 3.0 | 13.0 | 0.00 | 0.00 | 0.00 | 76 | 950.6 |
| 20260509211311 | 74 | 358 | 0.0 | 13.0 | 0.00 | 0.00 | 0.00 | 75 | 950.5 |
| 20260509210810 | 75 | 1 | 1.0 | 13.0 | 0.00 | 0.00 | 0.00 | 74 | 950.8 |
| 20260509210309 | 75 | 86 | 3.0 | 13.0 | 0.00 | 0.00 | 0.00 | 77 | 950.3 |
| 20260509205808 | 75 | 16 | 2.0 | 13.0 | 0.00 | 0.00 | 0.00 | 75 | 950.5 |
| 20260509205307 | 75 | 79 | 2.0 | 13.0 | 0.00 | 0.00 | 0.00 | 77 | 950.6 |
| 20260509204250 | 74 | 333 | 1.0 | 13.0 | 0.00 | 0.00 | 0.00 | 75 | 950.8 |
| 20260509203749 | 74 | 240 | 2.0 | 13.0 | 0.00 | 0.00 | 0.00 | 78 | 950.8 |
| 20260509203248 | 74 | 311 | 2.0 | 13.0 | 0.00 | 0.00 | 0.00 | 75 | 951.0 |
| 20260509202747 | 74 | 56 | 2.0 | 13.0 | 0.00 | 0.00 | 0.00 | 78 | 950.6 |
| 20260509202246 | 74 | 354 | 3.0 | 13.0 | 0.00 | 0.00 | 0.00 | 76 | 951.2 |
| 20260509201745 | 74 | 29 | 2.0 | 13.0 | 0.00 | 0.00 | 0.00 | 75 | 950.9 |
| 20260509200728 | 74 | 12 | 2.0 | 13.0 | 0.00 | 0.00 | 0.00 | 77 | 950.6 |
| 20260509200227 | 74 | 34 | 3.0 | 13.0 | 0.00 | 0.00 | 0.00 | 77 | 950.5 |
| 20260509195726 | 73 | 49 | 2.0 | 12.0 | 0.00 | 0.00 | 0.00 | 79 | 950.4 |
| 20260509195225 | 73 | 36 | 2.0 | 12.0 | 0.00 | 0.00 | 0.00 | 78 | 950.4 |
| 20260509194724 | 73 | 37 | 3.0 | 12.0 | 0.00 | 0.00 | 0.00 | 78 | 950.4 |
| 20260509194223 | 73 | 52 | 5.0 | 12.0 | 0.00 | 0.00 | 0.00 | 77 | 950.5 |
| 20260509193722 | 73 | 55 | 5.0 | 12.0 | 0.00 | 0.00 | 0.00 | 77 | 950.4 |
| 20260509193220 | 73 | 57 | 4.0 | 12.0 | 0.00 | 0.00 | 0.00 | 76 | 950.3 |
| 20260509192719 | 73 | 51 | 4.0 | 12.0 | 0.00 | 0.00 | 0.00 | 76 | 950.4 |
| 20260509191702 | 72 | 72 | 5.0 | 12.0 | 0.00 | 0.00 | 0.00 | 78 | 950.5 |
| 20260509191201 | 72 | 63 | 3.0 | 12.0 | 0.00 | 0.00 | 0.00 | 77 | 950.4 |
| 20260509190700 | 72 | 61 | 4.0 | 12.0 | 0.00 | 0.00 | 0.00 | 77 | 950.6 |
| 20260509190158 | 72 | 44 | 3.0 | 12.0 | 0.00 | 0.00 | 0.00 | 76 | 950.4 |